Weather in Crailsheim

Germany     49°08′14″N   10°04′16″E
temp.,
°C
wind,
m/s
gust,
m/s
humid.,
%
clouds,
%
prec.,
mm/h
press.,
hPa
HPBL,
m
12 may, wed
wed1223:00+10wsw51097100 1.8 1011511
02:00+9w51098100 1.8 1011555
05:00+9w5999100 0.1 1011468
08:00+8w61098100 0.5 1012591
11:00+8w61098100 0.4 1012435
14:00+10wnw4591100 0.8 1012585
17:00+11nnw2388100 1.1 1011364
20:00+10ssw1192100 2.0 101114
13 may, thu
thu1323:00+8ssw2292100 0.0 101111
02:00+7wsw229388 0.0 101031
05:00+7wsw2293100 0.0 100933
08:00+9w3591100 0.0 1009194
11:00+12wnw4579100 0.1 1007678
14:00+14wnw4568100 0.1 10061272
17:00+11w81092100 1.6 1007719
20:00+7wsw6119299 1.7 1009514
14 may, fri
fri1423:00+5wsw5129670 0.0 1009330
02:00+5wsw4119399 0.0 1009325
05:00+7wsw41090100 0.0 1008344
08:00+8wsw488798 0.0 1009435
11:00+11w567654 0.1 10091069
14:00+13w566992 0.9 10081476
17:00+13w567383 0.8 10081208
20:00+10w369196 1.4 1009210
15 may, sat
sat1523:00+7wsw3593100 0.2 101193
02:00+6sw229332 0.2 101121
05:00+5ssw3495100 0.0 101176
08:00+8sw4990100 0.0 1011573
11:00+10wsw567848 0.4 10101078
14:00+12w5673100 1.4 10091349
17:00+12w4675100 0.8 10081042
20:00+9wsw3588100 1.4 1009128
16 may, sun
sun1623:00+7wsw3594100 0.2 1010154
02:00+7s3496100 0.8 101087
05:00+7wsw6129697 1.5 1010740
08:00+7wsw51096100 1.8 1011763
11:00+9wsw699026 0.5 1011877
14:00+13w686393 0.6 10101780
17:00+11w6783100 0.4 1010836
20:00+8wsw3896100 1.2 1011450